Showing default

VINDLER 2.1, 68488

Orbit data source: Space-Track

VINDLER 2.1, 68488 is a payload satellite owned by Sierra Nevada (US) in SSO that was launched on Mon, 30 Mar 2026 UTC via an FALCON 9 launch vehicle from the Air Force Western Test Range (AFWTR). Payload-class satellites include a variety of spacecraft equipped with specific instruments for various scientific and technological missions. These include communications satellites like Starlink; space stations such as the ISS; scientific satellites like the Hubble; Earth observation satellites from companies like Planet Labs, Umbra, and HawkEye 360; GPS; miniature CubeSats for education and research; and military/defense satellites.

Loading next visibility...
Identifier
68488, 2026-067CA
Orbit
SSO
Country
Flag of USUS
Related business
Manufacturer
Muon Space
Mission
Operational Commercial Sigint
Bus & Motor
MUON HALO, Unknown motor
Mass
~130 kg wet, ~130 kg dry
Launch date (UTC)
2026-03-30 (5 months ago)
Launch vehicle
FALCON 9
Launch site
Air Force Western Test Range (AFWTR)
Object type
Payload
Rocket body
Debris
Shape & HBR
Box + 2 Pan, 2.5 m
Radar Cross Section
2.173 m², Large (>1 m²)

Expand to show TLE details & history
Last TLE update: 13 hours ago

TLE from 13 hours ago
0 VINDLER 2.1
1 68488U 26067CA  26254.41764858  .00001110  00000-0  11445-3 0  9998
2 68488  97.7661 211.3800 0002776  96.9148 263.2387 14.92205015 24585
Epoch: 2026-09-11T10:01Z
TLE epoch observation values (Epoch: 2026-09-11T10:01:24.837Z)
Latitude
Longitude
70.58521°
Altitude
594.332 km
Speed
7.563 km/s
True Right ascension
14h 05m 31s
True Declination
0° 00' 00"
Sunlit
Object was in daylight at epoch
Visualization orbit readout
Latitude
Unknown
Longitude
Unknown
Altitude
Unknown
Speed
Unknown
Apparent Right ascension
Unknown
Apparent Declination
Unknown
Sunlit
N/A
Visualization observer readout
Local Sidereal Time
15:45:48
Azimuth
Unknown
Elevation
Unknown
Doppler factor
Unknown
Orbital elements
Apogee altitude
590.014 km
Perigee altitude
586.146 km
Semi-major axis
6,966.217 km
Eccentricity
0.00028
Inclination
97.7661°
RAAN
211.38°
Arg. of periapsis
96.9148°
True anomaly
263.20711°
Mean anomaly
263.2387°
Eccentric anomaly
263.22291°
Mean motion
3.73291 °/min
Orbital period
96.44 mins
BSTAR
0.00011445
Loading maneuver chart data...
Computing Atmospheric mass density...
Loading historical data...
Loading historical data...
Loading historical data...
Loading historical data...
Loading historical data...
Loading historical data...
Loading historical data...

Documentation

Showing up to 5 results
|